When you browse on this site, cookies collect data to enhance your experience and personalize the content and advertising you see.
Visit our Privacy Policy to learn more. By continuing to use the site, you agree to this use of cookies and data.
  • In Österreich
  • Länderverzeichnis
  • Für 7 Tage
  • Wassertemperatur
  • Wetterkarte
  • News
  • Widgets
  • user-avatar
    Anmelden

    Stündliche Wetter Maracay

    Heute, 24 Januar, Freitag

    Zeit Temperatur Niederschläge Wind Luftdruck Luftfeuchtigkeit
    00:00 +21°C° 0 mm 2 m/S 710 mmHg 82%
    01:00 +21°C° 0 mm 2 m/S 710 mmHg 84%
    02:00 +21°C° 0 mm 2 m/S 710 mmHg 84%
    03:00 +21°C° 0 mm 1 m/S 710 mmHg 85%
    04:00 +21°C° 0 mm 1 m/S 710 mmHg 86%
    05:00 +22°C° 0 mm 1 m/S 710 mmHg 84%
    06:00 +22°C° 0 mm 1 m/S 711 mmHg 81%
    07:00 +22°C° 0 mm 1 m/S 711 mmHg 79%
    08:00 +25°C° 0 mm 1 m/S 712 mmHg 70%
    09:00 +27°C° 0 mm 1 m/S 713 mmHg 60%
    10:00 +29°C° 0 mm 1 m/S 713 mmHg 51%
    11:00 +30°C° 0 mm 1 m/S 713 mmHg 50%
    12:00 +30°C° 0 mm 1 m/S 712 mmHg 49%
    13:00 +30°C° 0 mm 2 m/S 711 mmHg 48%
    14:00 +30°C° 0 mm 2 m/S 711 mmHg 51%
    15:00 +29°C° 0 mm 2 m/S 710 mmHg 55%
    16:00 +28°C° 0 mm 2 m/S 710 mmHg 58%
    17:00 +27°C° 0 mm 2 m/S 710 mmHg 65%
    18:00 +25°C° 0 mm 2 m/S 710 mmHg 72%
    19:00 +23°C° 0 mm 2 m/S 710 mmHg 80%
    20:00 +21°C° 0 mm 2 m/S 711 mmHg 81%
    21:00 +21°C° 0 mm 2 m/S 711 mmHg 82%
    22:00 +21°C° 0 mm 2 m/S 712 mmHg 83%
    23:00 +20°C° 0 mm 2 m/S 711 mmHg 83%

    Morgen, 25 Januar, Samstag

    Zeit Temperatur Niederschläge Wind Luftdruck Luftfeuchtigkeit
    00:00 +20°C° 0 mm 2 m/S 711 mmHg 82%
    01:00 +20°C° 0 mm 2 m/S 710 mmHg 81%
    02:00 +20°C° 0 mm 1 m/S 710 mmHg 81%
    03:00 +20°C° 0 mm 1 m/S 710 mmHg 80%
    04:00 +20°C° 0 mm 1 m/S 710 mmHg 80%
    05:00 +20°C° 0 mm 1 m/S 710 mmHg 78%
    06:00 +21°C° 0 mm 1 m/S 711 mmHg 76%
    07:00 +21°C° 0 mm 1 m/S 712 mmHg 75%
    08:00 +24°C° 0 mm 1 m/S 712 mmHg 66%
    09:00 +27°C° 0 mm 1 m/S 713 mmHg 58%
    10:00 +29°C° 0 mm 1 m/S 713 mmHg 49%
    11:00 +30°C° 0 mm 1 m/S 713 mmHg 47%
    12:00 +30°C° 0 mm 1 m/S 712 mmHg 46%
    13:00 +31°C° 0 mm 1 m/S 711 mmHg 44%
    14:00 +30°C° 0 mm 1 m/S 711 mmHg 49%
    15:00 +30°C° 0 mm 2 m/S 710 mmHg 53%
    16:00 +29°C° 0 mm 2 m/S 710 mmHg 57%
    17:00 +27°C° 0 mm 2 m/S 710 mmHg 66%
    18:00 +26°C° 0 mm 2 m/S 710 mmHg 75%
    19:00 +24°C° 0 mm 2 m/S 710 mmHg 84%
    20:00 +24°C° 0 mm 1 m/S 711 mmHg 86%
    21:00 +23°C° 0 mm 1 m/S 711 mmHg 88%
    22:00 +23°C° 0 mm 1 m/S 711 mmHg 90%
    23:00 +23°C° 0 mm 1 m/S 711 mmHg 90%

    übermorgen, 26 Januar, Sonntag

    Zeit Temperatur Niederschläge Wind Luftdruck Luftfeuchtigkeit
    00:00 +23°C° 0 mm 1 m/S 710 mmHg 91%
    01:00 +23°C° 0 mm 1 m/S 710 mmHg 92%
    02:00 +23°C° 0 mm 1 m/S 710 mmHg 91%
    03:00 +22°C° 0 mm 1 m/S 710 mmHg 91%
    04:00 +22°C° 0 mm 1 m/S 710 mmHg 90%
    05:00 +23°C° 0 mm 1 m/S 710 mmHg 88%
    06:00 +23°C° 0 mm 1 m/S 711 mmHg 86%
    07:00 +23°C° 0 mm 1 m/S 711 mmHg 84%
    08:00 +25°C° 0 mm 1 m/S 712 mmHg 75%
    09:00 +28°C° 0 mm 1 m/S 713 mmHg 67%
    10:00 +30°C° 0 mm 1 m/S 713 mmHg 58%
    11:00 +30°C° 0.2 mm 1 m/S 713 mmHg 57%
    12:00 +30°C° 0.2 mm 1 m/S 712 mmHg 56%
    13:00 +30°C° 0.2 mm 1 m/S 711 mmHg 55%
    14:00 +30°C° 0.2 mm 2 m/S 711 mmHg 57%
    15:00 +30°C° 0.2 mm 2 m/S 710 mmHg 59%
    16:00 +29°C° 0.2 mm 2 m/S 710 mmHg 61%
    17:00 +27°C° 0 mm 2 m/S 710 mmHg 68%
    18:00 +26°C° 0 mm 2 m/S 710 mmHg 75%
    19:00 +24°C° 0 mm 1 m/S 710 mmHg 82%
    20:00 +24°C° 0 mm 1 m/S 711 mmHg 83%
    21:00 +24°C° 0 mm 1 m/S 711 mmHg 84%
    22:00 +23°C° 0 mm 1 m/S 711 mmHg 85%
    23:00 +23°C° 0 mm 1 m/S 711 mmHg 85%

    27 Januar, Montag

    Zeit Temperatur Niederschläge Wind Luftdruck Luftfeuchtigkeit
    00:00 +23°C° 0 mm 1 m/S 711 mmHg 85%
    01:00 +22°C° 0 mm 1 m/S 710 mmHg 86%
    02:00 +22°C° 0 mm 1 m/S 710 mmHg 86%
    03:00 +22°C° 0 mm 1 m/S 710 mmHg 86%
    04:00 +22°C° 0 mm 1 m/S 710 mmHg 86%
    05:00 +22°C° 0 mm 1 m/S 711 mmHg 84%
    06:00 +22°C° 0 mm 1 m/S 711 mmHg 81%
    07:00 +23°C° 0 mm 1 m/S 712 mmHg 79%
    08:00 +25°C° 0 mm 1 m/S 712 mmHg 69%
    09:00 +27°C° 0 mm 1 m/S 713 mmHg 60%
    10:00 +30°C° 0 mm 1 m/S 713 mmHg 51%
    11:00 +31°C° 0 mm 1 m/S 713 mmHg 49%
    12:00 +31°C° 0 mm 1 m/S 712 mmHg 47%
    13:00 +32°C° 0 mm 1 m/S 712 mmHg 45%
    14:00 +31°C° 0 mm 2 m/S 711 mmHg 48%
    15:00 +30°C° 0 mm 2 m/S 710 mmHg 52%
    16:00 +30°C° 0 mm 2 m/S 710 mmHg 56%
    17:00 +28°C° 0 mm 2 m/S 710 mmHg 63%
    18:00 +26°C° 0 mm 2 m/S 710 mmHg 71%
    19:00 +24°C° 0 mm 2 m/S 710 mmHg 78%
    20:00 +24°C° 0 mm 2 m/S 711 mmHg 79%
    21:00 +23°C° 0 mm 2 m/S 711 mmHg 81%
    22:00 +23°C° 0 mm 1 m/S 711 mmHg 82%
    23:00 +23°C° 0 mm 1 m/S 711 mmHg 83%

    28 Januar, Dienstag

    Zeit Temperatur Niederschläge Wind Luftdruck Luftfeuchtigkeit
    00:00 +22°C° 0 mm 1 m/S 711 mmHg 84%
    01:00 +22°C° 0 mm 1 m/S 710 mmHg 85%
    02:00 +22°C° 0 mm 1 m/S 710 mmHg 85%
    03:00 +21°C° 0 mm 1 m/S 710 mmHg 85%
    04:00 +21°C° 0 mm 1 m/S 710 mmHg 84%
    05:00 +22°C° 0 mm 1 m/S 710 mmHg 82%
    06:00 +22°C° 0 mm 1 m/S 711 mmHg 79%
    07:00 +22°C° 0 mm 1 m/S 712 mmHg 76%
    08:00 +25°C° 0 mm 1 m/S 712 mmHg 67%
    09:00 +27°C° 0 mm 1 m/S 712 mmHg 58%
    10:00 +30°C° 0 mm 1 m/S 713 mmHg 49%
    11:00 +30°C° 0 mm 1 m/S 712 mmHg 47%
    12:00 +31°C° 0 mm 1 m/S 712 mmHg 45%
    13:00 +32°C° 0 mm 1 m/S 711 mmHg 44%
    14:00 +31°C° 0 mm 1 m/S 710 mmHg 47%
    15:00 +31°C° 0 mm 2 m/S 710 mmHg 50%
    16:00 +30°C° 0 mm 2 m/S 709 mmHg 54%
    17:00 +28°C° 0 mm 2 m/S 709 mmHg 64%
    18:00 +26°C° 0 mm 2 m/S 709 mmHg 74%
    19:00 +24°C° 0 mm 2 m/S 710 mmHg 84%
    20:00 +24°C° 0 mm 2 m/S 710 mmHg 86%
    21:00 +24°C° 0 mm 2 m/S 710 mmHg 87%
    22:00 +23°C° 0 mm 2 m/S 711 mmHg 89%
    23:00 +23°C° 0 mm 1 m/S 710 mmHg 89%

    29 Januar, Mittwoch

    Zeit Temperatur Niederschläge Wind Luftdruck Luftfeuchtigkeit
    00:00 +23°C° 0 mm 1 m/S 710 mmHg 90%
    01:00 +22°C° 0 mm 1 m/S 710 mmHg 90%
    02:00 +22°C° 0 mm 1 m/S 710 mmHg 89%
    03:00 +22°C° 0 mm 1 m/S 710 mmHg 88%
    04:00 +22°C° 0 mm 1 m/S 709 mmHg 87%
    05:00 +22°C° 0 mm 1 m/S 710 mmHg 84%
    06:00 +23°C° 0 mm 1 m/S 711 mmHg 81%
    07:00 +23°C° 0 mm 1 m/S 711 mmHg 78%
    08:00 +25°C° 0 mm 1 m/S 712 mmHg 69%
    09:00 +28°C° 0 mm 1 m/S 712 mmHg 59%
    10:00 +30°C° 0 mm 1 m/S 713 mmHg 49%
    11:00 +31°C° 0 mm 1 m/S 712 mmHg 47%
    12:00 +32°C° 0 mm 1 m/S 711 mmHg 45%
    13:00 +32°C° 0 mm 1 m/S 711 mmHg 43%
    14:00 +31°C° 0 mm 2 m/S 710 mmHg 48%
    15:00 +30°C° 0 mm 2 m/S 709 mmHg 53%
    16:00 +29°C° 0 mm 3 m/S 709 mmHg 58%
    17:00 +28°C° 0 mm 2 m/S 709 mmHg 67%
    18:00 +26°C° 0 mm 2 m/S 709 mmHg 75%
    19:00 +24°C° 0 mm 2 m/S 710 mmHg 84%
    20:00 +24°C° 0 mm 2 m/S 710 mmHg 85%
    21:00 +24°C° 0 mm 2 m/S 710 mmHg 87%
    22:00 +23°C° 0 mm 1 m/S 711 mmHg 88%
    23:00 +23°C° 0 mm 1 m/S 710 mmHg 88%
    Mehr zeigen